Weather in Buzios

Brazil     22°46′04″S   41°54′02″W
temp.,
°C
wind,
m/s
gust,
m/s
humid.,
%
clouds,
%
prec.,
mm/h
press.,
hPa
HPBL,
m
6 march, sat
sat600:00+24nw2393100 0.1 100753
03:00+24wnw129294 0.1 100724
06:00+23nw1192100 0.0 100623
09:00+28nw237187 0.0 1009254
12:00+32ssw455349 0.0 10081062
15:00+28ssw567470 0.4 1008485
18:00+24ssw2390100 2.1 1009122
21:00+23wnw1294100 3.3 101145
7 march, sun
sun700:00+23nnw2396100 2.8 1011100
03:00+22ne1195100 3.1 100966
06:00+22nnw119684 1.3 101050
09:00+26w118386 2.4 1012329
12:00+24sw349499 1.3 1012241
15:00+23s1293100 2.1 1010154
18:00+23s1193100 0.1 101165
21:00+23nw019398 0.1 101249
8 march, mon
mon800:00+22wsw1194100 0.2 101237
03:00+22sw0193100 0.3 101039
06:00+22nne019392 0.0 101146
09:00+26wnw118394 0.3 1012339
12:00+26ese1183100 2.2 1012410
15:00+26se3378100 2.8 1010595
18:00+24e1290100 1.7 101033
21:00+23ne2292100 3.5 101290
9 march, tue
tue900:00+23ne2495100 1.1 1011147
03:00+22ne3496100 5.5 1010149
06:00+22nne2396100 5.1 1010127
09:00+25ene4586100 9.7 1011413
12:00+25ene4686100 4.1 1011459
15:00+25e4686100 8.1 1009599
18:00+23ne4792100 3.0 1010363
21:00+22ne4795100 4.6 1011357
10 march, wed
wed1000:00+22ne4794100 0.5 1011334
03:00+22ne3794100 0.8 1009285
06:00+22ne4795100 0.2 1010310
09:00+25ne3485100 0.8 1011488
12:00+27ene5678100 0.0 1011656
15:00+26e7880100 0.1 1009656
18:00+25ene61186100 0.0 1009589
21:00+25ne71285100 0.0 1011692